     2              OBSERVATION DATA    GPS                 RINEX VERSION / TYPE
teqc 1997Jul24 19970902 21:18:41UTC                         PGM / RUN BY / DATE
                                                            COMMENT
BIT 2 OF LLI FLAGS DATA COLLECTED UNDER A-S CONDITION       COMMENT
BIT 2 OF LLI FLAGS DATA COLLECTED UNDER A-S CONDITION       COMMENT
Original Marker Name: 55496.YUMA                            COMMENT
Campaign Name: Salt. Tr. Crust. Monit. May-Jun 1986         COMMENT
4-Character Station Name: YUMA                              COMMENT
6-Character Antenna Code: TI4100                            COMMENT
Vertical Measurement Point: PAE                             COMMENT
Vertical Offset to Rinex Ref. Point: 0.0000                 COMMENT
Radial Measurement Point: RRP                               COMMENT
Radial Offset to Rinex Ref. Point: 0.0000                   COMMENT
Antenna Height from Field Measurement: 1.3850 m             COMMENT
Original XYZ: -1776133.1402 -3905038.4379 2744169.1706      COMMENT
New XYZ position is based on association with SCEC monument COMMENT
E1C9S0R6+0011. Position of that monument is believed to be  COMMENT
valid to within 1 m horizontally; vertical accuracy         COMMENT
should be no worse than 3-times this value.                 COMMENT
                                                            COMMENT
Revised Rinex header created by UCSD GPS archive for        COMMENT
GSAC on 12-Apr-1999 (1999:102) 01:23:38 GMT                 COMMENT
For assistance contact dagnew@ucsd.edu or hjohnson@ucsd.edu COMMENT
                                                            COMMENT
YUMA NCMN 1983                                              MARKER NAME
5 NATIONAL GEODETIC SURVEY                                  OBSERVER / AGENCY
UT04 TI 4100 1.0                                            REC # / TYPE / VERS
108 TI 4100                                                 ANT # / TYPE
 -2196778.0000 -4887337.0000  3448425.0000                  APPROX POSITION XYZ
        1.3850        0.0000        0.0000                  ANTENNA: DELTA H/E/N
     1     1     0                                          WAVELENGTH FACT L1/2
     4    P1    P2    L1    L2                              # / TYPES OF OBSERV
     6                                                      INTERVAL
  1986     6    14     4    28   17.000000                  TIME OF FIRST OBS
  1986     6    14     4    47   59.000000                  TIME OF LAST OBS
     0                                                      # OF SATELLITES
                                                            END OF HEADER
 86  6 14  4 28 17.0800000  0  3G12G13G 7
  21747153.871    21747159.375    45354298.297 5 -61647245.225 3
  22116343.518    22116352.351    73070803.808 4 -84321776.432 2
  24526527.333    24526531.740     3337975.458 6  -5287777.244 3
 86  6 14  4 28 23.0800000  0  3G12G13G 7
  21749830.475    21749834.227    45368338.544 3 -61636304.806 3
  22118034.848    22118044.603    73079683.941 4 -84314856.829 3
  24525811.597    24525819.201     3334207.164 6  -5290713.568 2
 86  6 14  4 28 29.0800000  0  3G12G13G 7
  21752503.022    21752511.007    45382398.178 6 -61625349.247 2
  22119725.998    22119730.449    73088565.796 5 -84307935.902 3
  24525098.540    24525101.445     3330459.741 6  -5293633.659 3
 86  6 14  4 28 35.0800000  0  3G12G13G 7
  21755181.671    21755186.828    45396477.105 5 -61614378.654 2
  22121416.098    22121425.154    73097449.376 5 -84301013.654 3
  24524387.366    24524393.295     3326732.495 6  -5296537.971 4
 86  6 14  4 28 41.0800000  0  3G12G13G 7
  21757865.509    21757872.447    45410575.381 5 -61603392.980 3
  22123109.127    22123110.343    73106334.493 5 -84294090.143 1
  24523684.067    24523693.294     3323028.067 6  -5299424.543 3
 86  6 14  4 28 47.0800000  0  3G12G13G 7
  21760549.376    21760555.578    45424692.953 5 -61592392.307 4
  22124798.876    22124804.822    73115221.147 5 -84287165.488 2
                  24522985.937                    -5302288.268 1
 86  6 14  4 28 53.0800000  0  3G12G13G 7
  21763240.742    21763244.951    45438829.758 5 -61581376.593 2
  22126490.892    22126492.482    73124109.345 4 -84280239.634 2
  24522289.662    24522300.727     3282943.571 6  -5305124.115 2
 86  6 14  4 28 59.0800000  0  3G12G13G 7
  21765933.532    21765937.468    45452985.767 3 -61570345.935 2
  22128182.503    22128186.279    73132999.130 6 -84273312.522 3
  24521606.608    24521612.054     3279341.413 6  -5307931.014 2
 86  6 14  4 29  5.0800000  0  3G12G13G 7
  21768632.102    21768637.610    45467161.009 5 -61559300.293 1
  22129875.136    22129878.775    73141890.548 5 -84266384.136 3
  24520927.998    24520929.938     3275773.456 6  -5310711.242 3
 86  6 14  4 29 11.0800000  0  3G12G13G 7
  21771330.787    21771338.702    45481355.514 5 -61548239.672 3
  22131567.004    22131570.817    73150783.651 5 -84259454.445 3
  24520254.847    24520257.635     3272234.912 6  -5313468.542 2
 86  6 14  4 29 17.0800000  0  3G12G13G 7
  21774039.520    21774040.648    45495569.142 5 -61537164.118 1
  22133259.982    22133260.982    73159678.360 5 -84252523.489 3
  24519585.158    24519588.526     3268721.862 5  -5316206.011 3
 86  6 14  4 29 23.0800000  0  3G12G13G 7
  21776745.652    21776751.529    45509801.979 5 -61526073.569 1
  22134951.494    22134952.484    73168574.744 5 -84245591.243 3
  24518920.438    24518925.083     3265231.524 7  -5318925.745 3
 86  6 14  4 29 29.0800000  0  3G12G13G 7
  21779457.667    21779462.026    45524053.884 5 -61514968.173 2
  22136646.464    22136652.118    73177472.778 6 -84238657.738 1
  24518260.937    24518263.119     3261762.087 6  -5321629.176 3
 86  6 14  4 29 35.0800000  0  3G12G13G 7
  21782174.423    21782176.931    45538324.908 5 -61503847.943 3
  22138339.665    22138344.386    73186372.461 6 -84231722.925 3
  24517604.745    24517608.487     3258312.843 7  -5324316.939 3
 86  6 14  4 29 41.0800000  0  3G12G13G 7
  21784890.358    21784897.240    45552615.031 6 -61492712.799 1
  22140034.063    22140036.270    73195273.739 6 -84224786.837 3
  24516952.037    24516957.045     3254886.647 7  -5326986.705 2
 86  6 14  4 29 47.0800000  0  3G12G13G 7
  21787615.587    21787623.647    45566924.155 5 -61481562.802 3
  22141726.451    22141733.151    73204176.674 5 -84217849.475 2
                  24516312.792                    -5329633.337 2
 86  6 14  4 29 53.0800000  0  3G12G13G 7
  21790341.506    21790346.171    45581252.750 5 -61470397.655 1
  22143423.679    22143426.738    73213081.633 5 -84210910.549 4
  24515667.929    24515665.180     3215084.573 7  -5332251.516 3
 86  6 14  4 29 59.0800000  0  3G12G13G 7
                  21793074.576                   -61459206.140 1
                  22145121.324                   -84203967.571 3
                  24515039.119                    -5334837.933 2
 86  6 14  4 30  5.0800000  0  3G12G13G 7
                  21795812.048                     -603469.212 3
                  22146817.219                   -84197013.744 2
  24514334.881    24514415.456     3175340.620 7  -5337388.230 2
 86  6 14  4 30 11.0800000  0  3G12G13G 7
                  21798554.262                     -589026.700 3
                  22148522.706                   -84190045.985 2
  24513799.766    24513803.457     3172113.332 7  -5339902.869 3
 86  6 14  4 30 17.0800000  0  3G12G13G 7
                  21801304.714                     -574566.466 3
  22150261.907    22150225.304    73114004.381 6 -84183064.756 2
  24513192.281    24513195.853     3168927.737 6  -5342385.572 1
 86  6 14  4 30 23.0800000  0  3G12G13G 7
                  21804060.479                     -720686.200 2
  22151929.345    22151937.145    73122978.045 6 -84176072.444 2
                  24512598.202                    -5344840.723 1
 86  6 14  4 30 29.0800000  0  3G12G13G 7
                  21806855.422                     -778552.085 4
  22153637.069    22153642.399    73131961.495 3 -84169072.344 5
  24511998.787    24511998.503     3129351.410 3  -5347273.060 3
 86  6 14  4 30 35.0800000  0  3G12G13G 7
                  21809585.911                     -801800.810 3
  22155348.780    22155354.197    73140949.936 5 -84162067.973 2
  24511408.020    24511416.220     3126254.204 7  -5349686.517 1
 86  6 14  4 30 41.0800000  0  3G12G13G 7
                  21812357.992                     -787230.971 4
  22157060.777    22157065.685    73149940.187 5 -84155062.585 3
  24510826.020    24510828.917     3123179.853 5  -5352082.100 3
 86  6 14  4 30 47.0800000  0  3G12G13G 7
                  21815127.671                     -772699.858 4
  22158769.535    22158775.144    73158927.991 6 -84148059.094 3
  24510245.140    24510244.679     3120131.502 6  -5354457.472 3
 86  6 14  4 30 53.0800000  0  3G12G13G 7
                  21817904.186                     -758125.002 2
  22160480.691    22160484.235    73167910.307 5 -84141059.878 1
  24509670.255    24509674.387     3117112.424 6  -5356810.007 2
 86  6 14  4 30 59.0800000  0  3G12G13G 7
                  21820680.918                     -936617.416 4
  22162189.730    22162193.009    73176885.087 4 -84134066.545 4
  24509100.821    24509105.404     3114121.524 5  -5359140.532 3
 86  6 14  4 31  5.0800000  0  3G12G13G 7
                  21823459.177                     -922027.301 4
  22163896.312    22163898.385    73185851.216 6 -84127079.926 4
  24508535.278    24508540.870     3111154.105 7  -5361452.846 1
 86  6 14  4 31 11.0800000  0  3G12G13G 7
                  21826238.026                     -907416.358 4
  22165600.159    22165602.180    73194808.543 5 -84120100.178 4
  24507974.442    24507980.563     3108205.345 6  -5363750.536 1
 86  6 14  4 31 17.0800000  0  3G12G13G 7
                  21828839.453                    -1074970.126 3
  22167303.366    22167304.866    73203757.372 3 -84113127.056 3
  24507415.954    24507420.704     3105271.795 6  -5366036.426 3
 86  6 14  4 31 23.0800000  0  3G12G13G 7
                  21831802.798                    -1060369.635 2
  22169002.864    22169008.040    73212698.803 5 -84106159.744 3
  24506861.315    24506859.730     3102352.147 6  -5368311.471 1
 86  6 14  4 31 29.0800000  0  3G12G13G 7
                  21834582.966                    -1045748.678 4
  22170702.985    22170709.185    73221634.381 5 -84099196.963 3
  24506306.742    24506310.957     3099445.765 6  -5370576.197 1
 86  6 14  4 31 35.0800000  0  3G12G13G 7
                  21837372.224                    -1160082.399 6
  22172404.599    22172403.839    73230565.827 7 -84092237.371 3
  24505757.080    24505759.084     3096554.099 7  -5372829.417 1
 86  6 14  4 31 41.0800000  0  3G12G13G 7
                  21840162.850                    -1145429.761 3
  22174100.491    22174108.125    73239495.102 6 -84085279.507 1
                  24505210.356                    -5375057.549 3
 86  6 14  4 31 47.0800000  0  2G12G13
                  21842959.277                    -1130749.409 4
  22175801.967    22175807.573    73248423.951 6 -84078321.957 2
 86  6 14  4 31 53.0800000  0  2G12G13
                  21845754.219                    -1116046.741 5
  22177501.429    22177505.986    73257353.846 4 -84071363.585 3
 86  6 14  4 31 59.0800000  0  2G12G13
                  21848553.953                    -1101329.365 3
  22179199.640    22179202.205    73266285.834 6 -84064403.565 2
 86  6 14  4 32  5.0800000  0  3G12G13G 7
                  21851356.170                    -1086598.601 5
  22180900.653    22180903.808    73275220.619 6 -84057441.440 3
                  24503086.357                    -1340880.784 4
 86  6 14  4 32 11.0800000  0  3G12G13G 7
                  21854165.213                    -1071882.916 5
  22182601.684    22182604.517    73284158.486 6 -84050476.858 2
                  24502572.076                    -1343594.074 5
 86  6 14  4 32 17.0800000  0  3G12G13G 7
                  21856978.175                    -1057079.242 3
  22184304.472    22184302.532    73293099.612 4 -84043509.756 3
                  24502062.410                    -1346273.248 5
 86  6 14  4 32 23.0800000  0  3G12G13G 7
                  21859792.938                    -1042268.731 3
  22186005.177    22186007.615    73302043.985 6 -84036540.113 1
                  24501559.317                    -1348926.279 5
 86  6 14  4 32 29.0800000  0  2G13G 7
  22187706.304    22187711.148    73310991.542 4 -84029567.982 5
                  24501057.980                    -1351558.656 5
 86  6 14  4 32 35.0800000  0  2G13G 7
  22189411.211    22189412.000    73319941.917 5 -84022593.671 3
  24500562.035    24500561.264    -1354167.708 7   1941289.288 2
 86  6 14  4 32 41.0800000  0  2G13G 7
  22191114.154    22191118.643    73328894.817 3 -84015617.353 4
  24500070.825    24500073.586    -1356752.096 7   1939275.555 2
 86  6 14  4 32 47.0800000  0  2G13G 7
  22192819.888    22192821.778    73337849.924 6 -84008639.375 5
                  24499583.332    -1359305.138 6
 86  6 14  4 32 53.0800000  0  2G13G 7
  22194522.815    22194526.714    73346806.872 5 -84001659.909 2
  24499105.554    24499107.629    -1361821.379 6   1983545.452 3
 86  6 14  4 32 59.0800000  0  2G13G 7
  22196228.717    22196228.449    73355765.247 4 -83994679.397 3
  24498631.653    24498636.720    -1364300.589 7   1981613.580 2
 86  6 14  4 33  5.0800000  0  2G13G 7
  22197934.377    22197937.180    73364724.861 4 -83987697.872 2
  24498168.240    24498175.120    -1366746.571 7   1979708.140 2
 86  6 14  4 33 11.0800000  0  2G13G 7
  22199640.165    22199639.313    73373685.607 5 -83980715.452 4
  24497709.441    24497708.896    -1369164.108 7   1977824.364 2
 86  6 14  4 33 17.0800000  0  2G13G 7
  22201344.070    22201346.234    73382647.500 6 -83973732.159 3
  24497252.069    24497254.603    -1371557.051 7   1975959.747 3
 86  6 14  4 33 23.0800000  0  2G13G 7
  22203049.142    22203053.297    73391610.460 6 -83966748.036 5
  24496801.593    24496805.760    -1373927.928 6   1974112.271 1
 86  6 14  4 33 29.0800000  0  2G13G 7
  22204754.935    22204756.640    73400574.352 5 -83959763.174 3
  24496354.597    24496357.305    -1376278.624 6   1972280.609 1
 86  6 14  4 33 35.0800000  0  2G13G 7
  22206462.061    22206465.819    73409539.226 4 -83952777.566 2
  24495911.946    24495914.643    -1378609.117 6   1970464.604 5
 86  6 14  4 33 41.0800000  0  2G13G 7
  22208165.932    22208175.140    73418505.261 5 -83945791.040 2
                  24495470.920    -1380915.879 6
 86  6 14  4 33 47.0800000  0  2G13G 7
  22209874.260    22209880.913    73427472.476 6 -83938803.619 2
  24495038.674    24495141.171    -1383192.164 6   2014899.821 3
 86  6 14  4 33 53.0800000  0  2G13G 7
  22211580.980    22211584.502    73436441.065 4 -83931815.066 2
  24494613.675    24494617.417    -1385431.702 6   2013154.322 3
 86  6 14  4 33 59.0800000  0  2G13G 7
  22213287.317    22213290.048    73445411.141 6 -83924825.423 4
  24494194.008    24494195.489    -1387634.263 6   2011438.038 2
 86  6 14  4 34  5.0800000  0  2G13G 7
  22214991.085    22214995.506    73454382.800 5 -83917834.509 2
  24493781.113    24493785.832    -1389803.425 7   2009747.776 2
 86  6 14  4 34 11.0800000  0  2G13G 7
  22216700.350    22216708.162    73463356.021 5 -83910842.403 3
  24493373.172    24493374.690    -1391943.949 5   2008079.836 2
 86  6 14  4 34 17.0800000  0  2G13G 7
  22218409.119    22218413.613    73472330.793 6 -83903849.096 3
  24492971.659    24492974.854    -1394059.447 6   2006431.382 1
 86  6 14  4 34 23.0800000  0  2G13G 7
  22220118.622    22220121.124    73481307.191 6 -83896854.472 3
  24492573.651    24492578.117    -1396152.334 7   2004800.553 1
 86  6 14  4 34 29.0800000  0  2G13G 7
  22221827.422    22221832.934    73490285.193 6 -83889858.638 1
  24492178.103    24492179.157    -1398224.382 6   2003185.987 1
 86  6 14  4 34 35.0800000  0  2G13G 7
  22223536.347    22223538.879    73499264.812 6 -83882861.510 3
  24491788.255    24491795.605    -1400275.590 6   2001587.640 1
 86  6 14  4 34 41.0800000  0  2G13G 7
  22225243.631    22225248.681    73508246.083 5 -83875863.102 3
                  24491402.058    -1402302.389 5
 86  6 14  4 34 47.0800000  0  2G13G 7
  22226955.770    22226959.158    73517229.073 6 -83868863.367 1
  24491022.785    24491088.607    -1404297.899 6   2046239.937 3
 86  6 14  4 34 53.0800000  0  2G13G 7
  22228663.083    22228666.874    73526213.704 5 -83861862.373 2
  24490648.758    24490651.506    -1406256.640 6   2044713.446 1
 86  6 14  4 34 59.0800000  0  2G13G 7
  22230372.386    22230376.302    73535199.929 6 -83854860.118 3
  24490282.468    24490286.819    -1408177.818 7   2043216.455 1
 86  6 14  4 35  5.0800000  0  2G13G 7
  22232084.416    22232087.333    73544187.711 6 -83847856.660 2
  24489924.739    24489926.248    -1410066.398 6   2041745.227 1
 86  6 14  4 35 11.0800000  0  2G13G 7
  22233792.401    22233797.820    73553177.132 5 -83840851.907 3
  24489569.731    24489577.919    -1411925.871 6   2040296.305 1
 86  6 14  4 35 17.0800000  0  2G13G 7
  22235505.111    22235511.061    73562168.084 6 -83833845.996 2
  24489222.611    24489228.863    -1413760.364 5   2038866.819 1
 86  6 14  4 35 23.0800000  0  2G13G 7
  22237217.166    22237221.833    73571160.589 6 -83826838.817 1
  24488877.763    24488879.362    -1415572.241 6   2037454.965 3
 86  6 14  4 35 29.0800000  0  2G13G 7
  22238926.898    22238932.602    73580154.754 6 -83819830.399 3
  24488535.452    24488538.019    -1417363.390 5   2036059.258 3
 86  6 14  4 35 35.0800000  0  2G13G 7
  22240639.021    22240644.930    73589150.494 5 -83812820.709 3
  24488199.641    24488201.734    -1419133.763 6   2034679.758 2
 86  6 14  4 35 41.0800000  0  2G13G 7
  22242353.835    22242354.755    73598147.672 5 -83805809.926 4
                  24487867.881    -1420879.483 6
 86  6 14  4 35 47.0800000  0  2G13G 7
  22244065.332    22244067.925    73607146.227 6 -83798798.055 1
  24487539.688    24487656.909    -1422594.036 6   2079545.557 3
 86  6 14  4 35 53.0800000  0  2G13G 7
  22245775.932    22245775.233    73616146.243 6 -83791785.064 1
  24487221.653    24487229.988    -1424271.577 5   2078238.242 3
 86  6 14  4 35 59.0800000  0  2G13G 7
  22247489.309    22247496.292    73625147.752 6 -83784770.898 1
  24486909.933    24486912.333    -1425912.169 6   2076959.878 2
 86  6 14  4 36  5.0800000  0  2G13G 7
  22249204.043    22249208.715    73634150.730 5 -83777755.595 2
  24486604.411    24486604.941    -1427519.793 6   2075707.201 2
 86  6 14  4 36 11.0800000  0  2G13G 7
  22250915.988    22250919.294    73643155.095 6 -83770739.166 1
  24486301.669    24486304.998    -1429099.061 7   2074476.559 2
 86  6 14  4 36 17.0800000  0  2G13G 7
  22252629.113    22252634.694    73652160.981 5 -83763721.616 3
  24486006.880    24486010.182    -1430653.505 7   2073265.329 1
 86  6 14  4 36 23.0800000  0  2G13G 7
  22254343.949    22254349.365    73661168.424 5 -83756702.822 2
  24485716.693    24485716.805    -1432185.398 6   2072071.673 1
 86  6 14  4 36 29.0800000  0  2G13G 7
  22256056.801    22256062.312    73670177.490 5 -83749682.748 2
  24485427.401    24485432.359    -1433696.672 6   2070894.025 3
 86  6 14  4 36 35.0800000  0  2G13G 7
  22257772.467    22257779.376    73679188.096 5 -83742661.512 4
  24485144.325    24485145.624    -1435187.149 5   2069732.640 4
 86  6 14  4 36 41.0800000  0  2G13G 7
  22259488.418    22259491.974    73688200.291 6 -83735639.026 2
                  24484865.978    -1436652.661 5
 86  6 14  4 36 47.0800000  0  2G13G 7
  22261203.785    22261205.140    73697214.090 6 -83728615.281 3
  24484591.194    24484561.917    -1438086.441 6   2114820.950 1
 86  6 14  4 36 53.0800000  0  2G13G 7
  22262919.718    22262921.282    73706229.450 6 -83721590.321 1
  24484326.830    24484328.638    -1439482.712 6   2113732.948 2
 86  6 14  4 36 59.0800000  0  2G13G 7
  22264636.569    22264638.662    73715246.379 6 -83714564.165 2
  24484066.439    24484070.978    -1440842.135 6   2112673.136 1
 86  6 14  4 37  5.0800000  0  2G13G 7
  22266351.104    22266355.419    73724264.821 5 -83707536.803 2
  24483814.655    24483817.294    -1442168.580 6   2111639.575 3
 86  6 14  4 37 11.0800000  0  2G13G 7
  22268065.791    22268072.166    73733284.838 6 -83700508.214 1
  24483568.018    24483570.464    -1443466.656 6   2110628.058 2
 86  6 14  4 37 17.0800000  0  2G13G 7
  22269783.691    22269783.909    73742306.380 6 -83693478.455 2
  24483327.373    24483330.744    -1444740.018 5   2109635.835 3
 86  6 14  4 37 23.0800000  0  2G13G 7
  22271501.514    22271503.843    73751329.449 5 -83686447.460 1
  24483086.120    24483094.540    -1445991.071 6   2108660.990 2
 86  6 14  4 37 29.0800000  0  2G13G 7
  22273218.973    22273223.841    73760354.131 6 -83679415.262 2
  24482854.975    24482855.304    -1447221.495 7   2107702.215 3
 86  6 14  4 37 35.0800000  0  2G13G 7
  22274937.344    22274944.544    73769380.312 4 -83672381.813 1
  24482625.418    24482629.999    -1448431.073 6   2106759.662 3
 86  6 14  4 37 41.0800000  0  2G13G 7
  22276652.252    22276663.376    73778408.131 6 -83665347.218 3
                  24482400.684                     2105836.755 1
 86  6 14  4 37 47.0800000  0  3G12G13G 7
                  22016886.892                     -947181.437 7
  22278371.845    22278376.483    73787437.431 5 -83658311.369 2
  24482179.001    24482185.527    -1485952.239 5   2104938.838 3
 86  6 14  4 37 53.0800000  0  3G12G13G 7
                  22019902.375                     -931408.427 7
  22280090.770    22280096.278    73796468.307 6 -83651274.330 2
  24481967.635    24481972.811    -1487067.399 5   2104069.973 4
 86  6 14  4 37 59.0800000  0  3G12G13G 7
                  22022937.581                     -915619.133 5
  22281808.945    22281814.145    73805500.614 6 -83644236.158 3
  24481763.794    24481763.460    -1488145.182 5   2103229.707 4
 86  6 14  4 38  5.0800000  0  3G12G13G 7
  22025946.511    22025952.111     -899811.950 5   4455847.268 1
  22283526.121    22283534.042    73814534.517 6 -83637196.784 2
  24481562.249    24481563.842    -1489190.643 6   2102415.091 1
 86  6 14  4 38 11.0800000  0  3G12G13G 7
  22028955.011    22028959.893     -883987.987 6   4468177.745 1
  22285246.957    22285253.650    73823569.886 5 -83630156.220 3
  24481370.377    24481373.092    -1490207.943 7   2101622.396 1
 86  6 14  4 38 17.0800000  0  3G12G13G 7
  22031968.756    22031973.614     -868146.949 4   4480521.897 1
  22286964.658    22286971.069    73832606.804 6 -83623114.481 4
  24481180.895    24481186.937    -1491200.704 6   2100848.807 2
 86  6 14  4 38 23.0800000  0  3G12G13G 7
  22034987.654    22034995.172     -852288.944 4   4492878.748 4
  22288687.360    22288691.899    73841645.295 6 -83616071.517 3
  24480995.543    24481000.549    -1492171.170 6   2100092.601 1
 86  6 14  4 38 29.0800000  0  3G12G13G 7
  22038007.810    22038014.326     -836414.137 5   4505248.761 2
  22290407.542    22290410.015    73850685.218 5 -83609027.408 2
  24480815.906    24480819.240    -1493121.076 7   2099352.403 2
 86  6 14  4 38 35.0800000  0  3G12G13G 7
  22041034.235    22041038.792     -820522.570 4   4517631.779 3
  22292127.590    22292132.870    73859726.619 4 -83601982.140 3
  24480640.055    24480642.299    -1494050.076 5   2098628.506 1
 86  6 14  4 38 41.0800000  0  3G12G13G 7
  22044061.410    22044061.693     -804614.249 3   4530027.849 1
  22293848.364    22293853.893    73868769.403 5 -83594935.824 1
                  24480472.661                     2097924.251 2
 86  6 14  4 38 47.0800000  0  3G12G13G 7
  22047089.319    22047093.640     -788689.290 5   4542436.921 1
  22295569.564    22295574.730    73877813.541 5 -83587888.423 2
  24480232.508    24480305.456    -1531413.980 6   2097244.965 3
 86  6 14  4 38 53.0800000  0  3G12G13G 7
  22050124.418    22050129.598     -772747.627 4   4554859.006 2
  22297290.858    22297294.324    73886859.114 5 -83580839.930 2
  24480141.372    24480147.131    -1532248.460 6   2096594.845 2
 86  6 14  4 38 59.0800000  0  3G12G13G 7
  22053159.811    22053168.104     -756789.181 5   4567294.116 3
  22299011.958    22299019.853    73895906.242 5 -83573790.250 3
  24479988.263    24479998.777    -1533046.652 6   2095973.251 2
 86  6 14  4 39  5.0800000  0  3G12G13G 7
  22056202.671    22056205.648     -740814.125 4   4579742.238 3
  22300734.276    22300738.977    73904954.845 5 -83566739.371 2
  24479846.069    24479846.955    -1533811.846 5   2095377.013 3
 86  6 14  4 39 11.0800000  0  3G12G13G 7
  22059243.629    22059248.068     -724822.465 5   4592203.242 1
  22302454.956    22302459.099    73914004.802 6 -83559687.468 2
  24479703.472    24479705.297    -1534549.134 6   2094802.495 1
 86  6 14  4 39 17.0800000  0  3G12G13G 7
  22062292.355    22062291.485     -708814.241 4   4604677.165 4
  22304177.208    22304179.687    73923056.111 6 -83552634.462 1
  24479567.665    24479572.040    -1535262.042 7   2094246.984 2
 86  6 14  4 39 23.0800000  0  3G12G13G 7
  22065339.488    22065345.478     -692789.458 5   4617164.046 2
  22305903.783    22305906.090    73932108.851 5 -83545580.392 3
  24479436.211    24479439.063    -1535952.848 5   2093708.702 1
 86  6 14  4 39 29.0800000  0  3G12G13G 7
  22068392.352    22068400.394     -676748.034 4   4629663.834 1
  22307626.452    22307625.972    73941163.069 6 -83538525.179 1
  24479308.974    24479309.783    -1536623.134 6   2093186.383 1
 86  6 14  4 39 35.0800000  0  3G12G13G 7
  22071448.975    22071455.549     -660689.925 6   4642176.660 3
  22309347.144    22309354.733    73950218.763 5 -83531468.776 3
  24479185.314    24479185.949    -1537272.263 5   2092680.610 1
 86  6 14  4 39 41.0800000  0  3G12G13G 7
  22074507.313    22074511.792     -644615.183 6   4654702.426 3
  22311073.358    22311076.965    73959276.012 6 -83524411.170 2
                  24479070.803                     2092194.811 1
 86  6 14  4 39 47.0800000  0  3G12G13G 7
  22077568.226    22077575.144     -628523.714 5   4667241.224 4
  22312797.335    22312798.488    73968334.900 7 -83517352.262 3
  24478949.827    24478956.979    -1574356.106 5   2091734.283 3
 86  6 14  4 39 53.0800000  0  3G12G13G 7
  22080633.459    22080640.212     -612415.601 5   4679792.973 1
  22314519.367    22314521.163    73977395.385 5 -83510292.175 2
  24478847.313    24478850.647    -1574909.291 6   2091303.334 1
 86  6 14  4 39 59.0800000  0  3G12G13G 7
  22083701.881    22083708.607     -596290.962 4   4692357.674 3
  22316244.350    22316250.012    73986457.456 5 -83503230.811 1
  24478749.236    24478746.638    -1575425.517 6   2090900.653 1
 86  6 14  4 40  5.0800000  0  3G12G13G 7
  22086774.084    22086779.898     -580149.737 5   4704935.210 2
  22317970.076    22317971.178    73995521.135 6 -83496168.221 3
  24478657.807    24478664.262    -1575909.658 7   2090523.365 3
 86  6 14  4 40 11.0800000  0  3G12G13G 7
  22089848.011    22089856.638     -563992.079 4   4717525.625 2
  22319694.028    22319696.202    74004586.302 5 -83489104.430 1
  24478571.725    24478576.163    -1576365.967 6   2090167.807 1
 86  6 14  4 40 17.0800000  0  3G12G13G 7
  22092927.905    22092929.484     -547817.899 5   4730128.854 1
  22321420.172    22321422.510    74013653.004 6 -83482039.496 4
  24478489.322    24478495.765    -1576797.873 5   2089831.291 1
 86  6 14  4 40 23.0800000  0  3G12G13G 7
  22096009.981    22096012.745     -531627.382 5   4742744.848 2
  22323146.550    22323150.003    74022721.149 5 -83474973.395 2
  24478409.173    24478414.471    -1577207.675 6   2089511.954 2
 86  6 14  4 40 29.0800000  0  3G12G13G 7
  22099090.820    22099095.986     -515420.442 6   4755373.593 1
  22324870.287    22324875.699    74031790.768 7 -83467906.129 1
  24478334.941    24478336.802    -1577596.937 4   2089208.623 1
 86  6 14  4 40 35.0800000  0  3G12G13G 7
  22102178.935    22102181.603     -499197.196 4   4768015.095 3
  22326595.374    22326598.459    74040861.903 5 -83460837.698 1
  24478268.416    24478271.061    -1577965.118 6   2088921.746 3
 86  6 14  4 40 41.0800000  0  3G12G13G 7
  22105270.842    22105276.645     -482957.590 6   4780669.329 2
  22328323.776    22328329.121    74049934.594 6 -83453768.093 1
                  24478204.153                     2088654.949 1
 86  6 14  4 40 47.0800000  0  3G12G13G 7
  22108360.460    22108370.166     -466701.803 5   4793336.148 1
  22330052.956    22330056.110    74059008.730 6 -83446697.349 3
  24478144.875    24478149.545    -1614769.561 6   2088413.923 1
 86  6 14  4 40 53.0800000  0  3G12G13G 7
  22111458.443    22111463.306     -450429.737 5   4806015.706 3
  22331779.223    22331779.101    74068084.439 5 -83439625.331 2
  24478091.678    24478097.521    -1615041.545 6   2088201.810 1
 86  6 14  4 40 59.0800000  0  3G12G13G 7
  22114559.534    22114563.702     -434141.374 5   4818707.925 3
  22333506.632    22333506.934    74077161.759 6 -83432552.119 3
                  24478052.400                     2088016.295 1
 86  6 14  4 41  5.0800000  0  2G12G13
  22117662.396    22117668.875     -417836.780 6   4831412.793 2
  22335233.021    22335234.674    74086240.592 6 -83425477.664 1
 86  6 14  4 41 11.0800000  0  2G12G13
  22120767.979    22120774.320     -401516.020 4   4844130.267 2
  22336961.934    22336962.252    74095320.942 6 -83418402.089 3
 86  6 14  4 41 17.0800000  0  2G12G13
  22123876.958    22123884.499     -385179.157 4   4856860.300 2
  22338686.866    22338692.669    74104402.789 2 -83411325.315 1
 86  6 14  4 41 23.0800000  0  2G12G13
  22126986.127    22126993.695     -368826.284 4   4869602.773 1
  22340417.122    22340420.765    74113486.084 5 -83404247.450 2
 86  6 14  4 41 29.0800000  0  2G12G13
  22130103.451    22130110.004     -352457.344 3   4882357.808 1
  22342147.043    22342148.147    74122570.713 6 -83397168.514 2
 86  6 14  4 41 35.0800000  0  2G12G13
  22133219.697    22133224.495     -336072.417 5   4895125.256 2
  22343875.748    22343878.420    74131656.702 6 -83390088.498 3
 86  6 14  4 41 41.0800000  0  2G12G13
  22136340.699    22136347.495     -319671.468 6   4907905.241 3
  22345604.973    22345609.473    74140744.185 5 -83383007.341 4
 86  6 14  4 41 47.0800000  0  2G12G13
  22139469.218    22139472.576     -303254.429 5   4920697.697 3
  22347337.017    22347338.552    74149833.154 5 -83375925.041 1
 86  6 14  4 41 53.0800000  0  2G12G13
  22142592.543    22142595.223     -286821.338 5   4933502.734 1
  22349063.353    22349069.416    74158923.676 6 -83368841.506 3
 86  6 14  4 41 59.0800000  0  3G12G13G 7
  22145725.059    22145727.744     -270372.204 4   4946320.251 1
  22350794.083    22350800.519    74168015.844 6 -83361756.666 3
                  24477840.619                    -4753751.618 8
 86  6 14  4 42  5.0800000  0  3G12G13G 7
  22148855.151    22148863.670     -253907.101 6   4959150.180 2
  22352526.404    22352529.389    74177109.592 5 -83354670.647 3
                  24477847.425                    -4753674.619 8
 86  6 14  4 42 11.0800000  0  3G12G13G 7
  22151994.120    22151998.204     -237425.954 4   4971992.644 3
  22354257.385    22354258.201    74186204.933 5 -83347583.379 2
                  24477913.725                    -4753569.804 6
 86  6 14  4 42 17.0800000  0  3G12G13G 7
  22155131.115    22155135.466     -220928.698 4   4984847.631 1
  22355986.321    22355990.525    74195301.932 5 -83340494.818 5
  24477937.033    24477948.309    -4753441.006 6   6366813.481 1
 86  6 14  4 42 23.0800000  0  3G12G13G 7
  22158274.778    22158278.651     -204415.567 5   4997714.986 1
  22357718.048    22357719.335    74204400.435 5 -83333405.035 2
  24477966.373    24477970.140    -4753290.175 6   6366930.907 4
 86  6 14  4 42 29.0800000  0  3G12G13G 7
  22161420.692    22161422.466     -187886.588 3   5010594.705 2
  22359450.224    22359451.908    74213500.461 6 -83326314.150 2
  24477998.312    24478000.185    -4753118.878 6   6367063.912 5
 86  6 14  4 42 35.0800000  0  3G12G13G 7
  22164568.953    22164575.774     -171341.920 5   5023486.622 3
  22361183.087    22361183.906    74222601.859 5 -83319222.140 2
  24478035.605    24478040.496    -4752926.254 5   6367213.973 4
 86  6 14  4 42 41.0800000  0  3G12G13G 7
  22167718.988    22167724.797     -154781.538 4   5036390.860 2
  22362913.228    22362916.117    74231704.746 5 -83312128.961 1
                  24478076.967    -4752707.364 6
 86  6 14  4 42 47.0800000  0  3G12G13G 7
  22170873.029    22170880.146     -138205.395 4   5049307.287 1
  22364646.993    22364652.447    74240809.086 5 -83305034.705 1
  24478124.288    24478131.615    -4752455.423 5   6413596.077 1
 86  6 14  4 42 53.0800000  0  3G12G13G 7
  22174033.300    22174033.472     -121613.576 6   5062236.021 1
  22366378.887    22366383.718    74249914.891 5 -83297939.258 2
  24478179.045    24478181.989    -4752166.008 6   6413821.374 3
 86  6 14  4 42 59.0800000  0  3G12G13G 7
  22177192.269    22177200.727     -105006.041 6   5075176.925 3
  22368112.325    22368115.625    74259022.204 5 -83290842.607 1
  24478243.249    24478245.265    -4751840.497 6   6414075.022 3
 86  6 14  4 43  5.0800000  0  3G12G13G 7
  22180353.632    22180355.874      -88382.785 6   5088130.119 2
  22369844.728    22369850.619    74268130.981 4 -83283744.910 3
  24478309.313    24478314.680    -4751483.120 6   6414353.512 3
 86  6 14  4 43 11.0800000  0  3G12G13G 7
  22183522.088    22183523.786      -71743.883 5   5101095.505 2
  22371578.510    22371581.538    74277241.146 4 -83276646.058 3
  24478380.478    24478388.090    -4751098.393 6   6414653.297 3
 86  6 14  4 43 17.0800000  0  3G12G13G 7
  22186691.102    22186694.598      -55089.252 6   5114073.140 1
  22373314.248    22373317.063    74286352.846 5 -83269546.025 1
  24478461.045    24478460.769    -4750689.555 6   6414971.871 3
 86  6 14  4 43 23.0800000  0  3G12G13G 7
  22189862.320    22189868.158      -38418.940 6   5127062.970 1
  22375046.775    22375049.630    74295466.178 5 -83262444.754 5
  24478542.928    24478544.716    -4750258.930 6   6415307.421 1
 86  6 14  4 43 29.0800000  0  3G12G13G 7
  22193034.868    22193043.415      -21732.888 5   5140065.130 2
  22376784.456    22376787.830    74304581.094 5 -83255342.213 2
  24478627.831    24478629.260    -4749807.780 5   6415658.990 3
 86  6 14  4 43 35.0800000  0  3G12G13G 7
  22196216.173    22196223.042       -5031.351 4   5153079.268 3
  22378516.236    22378519.922    74313697.596 6 -83248238.474 1
  24478719.475    24478723.256    -4749335.149 6   6416027.217 3
 86  6 14  4 43 41.0800000  0  3G12G13G 7
  22199396.076    22199403.279       11685.752 6   5166105.595 1
  22380249.749    22380257.739    74322815.561 6 -83241133.536 3
                  24478818.053                     6416416.183 1
 86  6 14  4 43 47.0800000  0  3G12G13G 7
  22202581.312    22202588.553       28418.436 5   5179144.045 2
  22381987.549    22381991.492    74331935.075 5 -83234027.419 3
  24478919.720    24478919.672    -4785188.288 5   6416831.337 1
 86  6 14  4 43 53.0800000  0  3G12G13G 7
  22205770.277    22205770.173       45166.615 5   5192194.543 3
  22383721.575    22383726.571    74341056.147 6 -83226920.098 4
  24479020.957    24479025.246    -4784617.914 4   6417275.676 5
 86  6 14  4 43 59.0800000  0  3G12G13G 7
  22208957.030    22208959.892       61930.254 4   5205257.120 3
  22385458.957    22385463.683    74350178.816 5 -83219811.510 3
  24479138.436    24479140.501    -4784011.650 6   6417748.131 3
 86  6 14  4 44  5.0800000  0  3G12G13G 7
  22212151.719    22212159.485       78709.348 5   5218331.743 2
  22387194.280    22387196.783    74359303.032 5 -83212701.734 3
  24479256.734    24479262.099    -4783373.728 6   6418245.184 2
 86  6 14  4 44 11.0800000  0  3G12G13G 7
  22215347.315    22215351.475       95503.804 5   5231418.329 2
  22388930.831    22388934.670    74368428.769 4 -83205590.744 1
  24479385.791    24479392.693    -4782708.644 5   6418763.481 3
 86  6 14  4 44 17.0800000  0  3G12G13G 7
  22218549.702    22218550.542      112313.606 6   5244516.889 2
  22390668.293    22390669.194    74377556.023 5 -83198478.604 2
  24479517.332    24479519.226    -4782019.625 5   6419300.344 3
 86  6 14  4 44 23.0800000  0  3G12G13G 7
  22221748.799    22221754.466      129138.745 5   5257627.380 1
  22392408.820    22392409.747    74386684.706 4 -83191365.315 3
  24479649.494    24479654.182    -4781308.970 5   6419854.147 2
 86  6 14  4 44 29.0800000  0  3G12G13G 7
  22224953.519    22224958.284      145979.124 6   5270749.707 1
  22394142.898    22394144.790    74395814.949 6 -83184250.882 3
  24479788.599    24479797.572    -4780578.018 6   6420423.682 1
 86  6 14  4 44 35.0800000  0  3G12G13G 7
  22228161.811    22228161.092      162834.703 6   5283883.985 2
  22395880.630    22395883.181    74404946.561 4 -83177135.368 3
  24479932.642    24479934.335    -4779825.659 6   6421009.968 1
 86  6 14  4 44 41.0800000  0  3G12G13G 7
  22231369.899    22231374.583      179705.573 5   5297030.098 1
  22397617.845    22397623.025    74414079.741 5 -83170018.531 4
                  24480084.725                     6421617.033 1
 86  6 14  4 44 47.0800000  0  3G12G13G 7
  22234583.801    22234589.411      196591.712 6   5310188.106 1
  22399357.789    22399361.933    74423214.464 4 -83162900.595 4
  24480235.946    24480236.858    -4815517.778 5   6422250.334 2
 86  6 14  4 44 53.0800000  0  3G12G13G 7
  22237801.576    22237807.166      213492.995 5   5323357.943 1
  22401095.636    22401103.363    74432350.767 4 -83155781.426 3
  24480397.994    24480402.428    -4814667.546 6   6422912.863 1
 86  6 14  4 44 59.0800000  0  3G12G13G 7
  22241018.497    22241023.758      230409.528 6   5336539.664 1
  22402834.506    22402842.423    74441488.549 5 -83148661.085 3
  24480566.045    24480571.913    -4813781.686 6   6423603.169 2
 86  6 14  4 45  5.0800000  0  3G12G13G 7
  22244240.937    22244244.194      247341.238 4   5349733.202 1
  22404570.935    22404576.761    74450627.761 5 -83141539.605 2
  24480739.909    24480746.710    -4812864.285 5   6424318.037 1
 86  6 14  4 45 11.0800000  0  3G12G13G 7
  22247464.339    22247472.157      264288.051 6   5362938.509 2
  22406314.389    22406315.123    74459768.431 6 -83134417.030 2
  24480921.497    24480924.087    -4811919.988 6   6425053.842 2
 86  6 14  4 45 17.0800000  0  3G12G13G 7
  22250694.859    22250701.046      281249.976 5   5376155.546 1
  22408052.451    22408054.131    74468910.666 6 -83127293.214 2
  24481106.286    24481108.982    -4810951.717 6   6425808.350 1
 86  6 14  4 45 23.0800000  0  3G12G13G 7
  22253924.696    22253929.257      298226.941 4   5389384.364 2
  22409792.517    22409796.541    74478054.346 6 -83120168.224 3
  24481293.893    24481296.445    -4809961.834 5   6426579.670 2
 86  6 14  4 45 29.0800000  0  3G12G13G 7
  22257158.550    22257160.129      315218.911 4   5402624.866 3
  22411532.224    22411536.491    74487199.527 6 -83113042.145 5
  24481488.031    24481485.415    -4808951.685 6   6427366.806 1
 86  6 14  4 45 35.0800000  0  3G12G13G 7
  22260392.833    22260394.751      332225.955 6   5415877.095 1
  22413273.514    22413274.685    74496346.217 5 -83105914.823 3
  24481683.829    24481688.482    -4807919.997 6   6428170.693 3
 86  6 14  4 45 41.0800000  0  3G12G13G 7
  22263630.841    22263638.435      349247.931 5   5429140.948 1
  22415012.929    22415017.768    74505494.380 6 -83098786.412 3
                  24481894.567                     6428993.256 1
 86  6 14  4 45 47.0800000  0  3G12G13G 7
  22266876.609    22266881.623      366284.799 6   5442416.452 2
  22416754.280    22416758.666    74514644.034 6 -83091656.788 3
                  24482092.621                    -6263836.242 6
 86  6 14  4 45 53.0800000  0  3G12G13G 7
  22270120.217    22270128.502      383336.634 5   5455703.598 1
  22418497.392    22418502.174    74523795.218 6 -83084525.996 1
                  24482305.773                    -6262672.363 3
 86  6 14  4 45 59.0800000  0  3G12G13G 7
  22273367.011    22273375.907      400403.317 5   5469002.348 2
  22420238.056    22420244.509    74532947.979 5 -83077393.965 4
                  24482530.238                    -6261519.332 6
 86  6 14  4 46  5.0800000  0  3G12G13G 7
  22276617.329    22276624.284      417484.914 6   5482312.625 3
  22421980.943    22421984.152    74542102.303 5 -83070260.730 3
                  24482757.737                    -6260336.928 5
 86  6 14  4 46 11.0800000  0  3G12G13G 7
  22279872.022    22279876.286      434581.326 6   5495634.490 1
  22423723.412    22423726.802    74551258.004 6 -83063126.387 5
                  24482990.643                    -6259083.835 4
 86  6 14  4 46 17.0800000  0  3G12G13G 7
  22283127.058    22283133.783      451692.468 5   5508967.866 2
  22425464.529    22425469.377    74560415.173 5 -83055990.963 3
                  24483228.077                    -6257841.651 6
 86  6 14  4 46 23.0800000  0  3G12G13G 7
  22286388.767    22286393.398      468818.470 5   5522312.789 2
  22427207.388    22427211.634    74569573.723 5 -83048854.422 2
                  24483468.404                    -6256582.471 5
 86  6 14  4 46 29.0800000  0  3G12G13G 7
  22289648.229    22289655.713      485959.328 6   5535669.293 1
  22428950.098    22428953.825    74578733.871 5 -83041716.608 1
                  24483713.204                    -6255301.323 6
 86  6 14  4 46 35.0800000  0  3G12G13G 7
  22292915.070    22292918.056      503115.022 6   5549037.409 3
  22430695.057    22430701.383    74587895.595 5 -83034577.631 3
                  24483965.163                    -6254009.153 6
 86  6 14  4 46 41.0800000  0  3G12G13G 7
  22296179.684    22296183.576      520285.550 5   5562416.995 2
  22432439.605    22432440.463    74597058.893 6 -83027437.399 3
                  24484217.129                    -6252688.916 6
 86  6 14  4 46 47.0800000  0  3G12G13G 7
  22299450.860    22299453.970      537470.794 4   5575808.102 2
  22434181.374    22434185.987    74606223.797 6 -83020295.961 3
                  24484480.175                    -6251308.577 6
 86  6 14  4 46 53.0800000  0  3G12G13G 7
  22302725.123    22302727.837      554670.662 6   5589210.603 3
  22435924.741    22435930.931    74615390.243 6 -83013153.239 1
                  24484745.850                    -6249888.964 5
 86  6 14  4 46 59.0800000  0  3G12G13G 7
  22306000.650    22306003.765      571885.326 5   5602624.587 1
  22437671.319    22437672.552    74624558.345 5 -83006009.295 4
                  24485024.159                    -6248439.109 5
 86  6 14  4 47  5.0800000  0  3G12G13G 7
  22309276.839    22309283.660      589114.587 5   5616049.988 2
  22439418.700    22439418.157    74633727.865 6 -82998864.184 3
  24485303.190    24485305.267    -6246963.441 6   8552289.819 1
 86  6 14  4 47 11.0800000  0  3G12G13G 7
  22312558.328    22312562.612      606358.546 5   5629486.868 1
  22441161.134    22441164.743    74642899.057 5 -82991717.771 3
  24485588.662    24485594.777    -6245460.498 6   8553460.917 2
 86  6 14  4 47 17.0800000  0  3G12G13G 7
  22315840.709    22315848.918      623617.053 5   5642935.065 3
  22442906.779    22442910.552    74652071.796 6 -82984570.240 1
  24485879.515    24485882.947    -6243934.003 6   8554649.877 1
 86  6 14  4 47 23.0800000  0  3G12G13G 7
  22319129.877    22319140.223      640890.128 5   5656394.569 1
  22444654.694    22444655.798    74661246.106 7 -82977421.403 5
  24486174.964    24486181.833    -6242386.124 6   8555856.023 3
 86  6 14  4 47 29.0800000  0  3G12G13G 7
  22322420.748    22322422.494      658177.765 5   5669865.464 1
  22446399.050    22446403.792    74670421.982 5 -82970271.373 3
  24486474.000    24486476.492    -6240818.073 6   8557077.845 2
 86  6 14  4 47 35.0800000  0  3G12G13G 7
  22325713.646    22325720.868      675479.991 5   5683347.658 3
  22448144.741    22448150.045    74679599.417 5 -82963120.098 1
  24486775.795    24486779.154    -6239228.378 6   8558316.560 3
 86  6 14  4 47 41.0800000  0  3G12G13G 7
  22329009.930    22329014.816      692796.603 4   5696841.196 3
  22449892.483    22449898.279    74688778.475 5 -82955967.587 3
                  24487084.990                     8559576.632 2
 86  6 14  4 47 47.0800000  0  3G12G13G 7
  22332305.476    22332311.987      710127.738 5   5710345.941 3
  22451638.757    22451639.277    74697959.114 5 -82948813.851 3
  24487393.901    24487405.324    -6273968.341 5   8560863.412 4
 86  6 14  4 47 53.0800000  0  3G12G13G 7
  22335607.312    22335615.379      727473.226 4   5723861.917 3
  22453386.383    22453390.255    74707141.352 6 -82941658.865 2
  24487719.306    24487724.956    -6272279.372 6   8562179.574 1
